Change the Weather History Date:

Sunday, March 17, 2013

  Actual Average Record
Temperature  
Mean Temperature 37 °F 38 °F  
Max Temperature 47 °F 49 °F 63 °F (2007)
Min Temperature 26 °F 28 °F 21 °F (2002)
Degree Days  
Heating Degree Days 28 27  
Month to date heating degree days 458 499  
Since 1 July heating degree days 5536 5864  
Cooling Degree Days 0 0  
Month to date cooling degree days 0 0  
Year to date cooling degree days 0 0  
Moisture  
Dew Point 24 °F    
Average Humidity 58    
Maximum Humidity 78    
Minimum Humidity 37    
Precipitation  
Precipitation 0.00 in 0.07 in 0.54 in (2006)
Month to date precipitation 0.39 0.99  
Year to date precipitation 2.82 5.22  
Sea Level Pressure  
Sea Level Pressure 29.91 in    
Wind  
Wind Speed 9 mph (SW)    
Max Wind Speed 24 mph    
Max Gust Speed 31 mph    
Visibility 10 miles    
Events      
T = Trace of Precipitation, MM = Missing Value Source: NWS Daily Summary

Daily Weather History Graph

Daily Weather History Graph

Search for Another Location

Airport or City:

Trip Planner

Search our weather history database for the weather conditions in past years. The results will help you decide how hot, cold, wet, or windy it might be!

Date:

Astronomy

Mar. 17, 2013 Rise Set
Actual Time 6:58 AM PDT 6:58 PM PDT
Civil Twilight 6:27 AM PDT 7:29 PM PDT
Nautical Twilight 5:50 AM PDT 8:05 PM PDT
Astronomical Twilight 5:13 AM PDT 8:43 PM PDT
Moon 9:49 AM PDT (3/17) 12:34 AM PDT (3/17)
Length of Visible Light 13h 02m
Length of Day
12h 00m
Waxing Crescent, 32% of the Moon is Illuminated
Mar 17
Waxing Crescent
Mar 19
First Quarter
Mar 27
Full
Apr 2
Last Quarter
Apr 10
New

Hourly Weather History & Observations

Time (PDT) Temp. Windchill Dew Point Humidity Pressure Visibility Wind Dir Wind Speed Gust Speed Precip Events Conditions
12:53 AM 36.0 °F 26.0 °F 27.0 °F 70% 29.68 in 10.0 mi SSW 17.3 mph - N/A   Mostly Cloudy
1:53 AM 35.1 °F 24.5 °F 24.1 °F 64% 29.70 in 10.0 mi SW 18.4 mph 27.6 mph N/A   Clear
3:53 AM 34.0 °F 23.8 °F 23.0 °F 64% 29.76 in 10.0 mi WSW 16.1 mph 25.3 mph N/A   Overcast
4:53 AM 32.0 °F 24.2 °F 24.1 °F 73% 29.78 in 10.0 mi SW 9.2 mph - N/A   Mostly Cloudy
5:53 AM 33.1 °F 24.9 °F 25.0 °F 72% 29.80 in 10.0 mi SW 10.4 mph - N/A   Overcast
6:53 AM 32.0 °F 23.6 °F 25.0 °F 75% 29.83 in 10.0 mi SSW 10.4 mph - N/A   Mostly Cloudy
7:53 AM 30.9 °F 22.2 °F 25.0 °F 79% 29.87 in 10.0 mi South 10.4 mph - N/A   Clear
8:53 AM 32.0 °F 25.6 °F 25.0 °F 75% 29.89 in 10.0 mi SSE 6.9 mph - N/A   Clear
9:53 AM 37.0 °F 29.8 °F 26.1 °F 65% 29.91 in 10.0 mi SSE 10.4 mph - N/A   Clear
10:53 AM 42.1 °F 34.2 °F 24.1 °F 49% 29.92 in 10.0 mi SW 16.1 mph - N/A   Clear
11:53 AM 43.0 °F 37.2 °F 21.0 °F 42% 29.93 in 10.0 mi WSW 10.4 mph 20.7 mph N/A   Overcast
1:53 PM 41.0 °F 32.2 °F 25.0 °F 53% 29.96 in 10.0 mi West 18.4 mph 25.3 mph N/A   Overcast
2:53 PM 43.0 °F 37.2 °F 21.0 °F 42% 29.96 in 10.0 mi West 10.4 mph - N/A   Overcast
3:53 PM 42.1 °F 36.6 °F 21.9 °F 45% 29.97 in 10.0 mi NW 9.2 mph - N/A   Overcast
4:53 PM 44.1 °F 39.0 °F 19.9 °F 38% 29.97 in 10.0 mi West 9.2 mph - N/A   Overcast
5:53 PM 42.1 °F 39.2 °F 21.0 °F 43% 29.98 in 10.0 mi West 4.6 mph - N/A   Overcast
6:53 PM 39.0 °F 35.7 °F 25.0 °F 57% 29.99 in 10.0 mi SW 4.6 mph - N/A   Overcast
7:53 PM 35.1 °F 30.1 °F 24.1 °F 64% 30.00 in 10.0 mi SSW 5.8 mph - N/A   Mostly Cloudy
8:53 PM 35.1 °F 31.0 °F 23.0 °F 61% 29.99 in 10.0 mi SW 4.6 mph - N/A   Mostly Cloudy
9:53 PM 28.9 °F - 23.0 °F 78% 30.01 in 10.0 mi Calm Calm - N/A   Clear
10:53 PM 28.0 °F 20.0 °F 21.9 °F 78% 30.01 in 10.0 mi South 8.1 mph - N/A   Clear
11:53 PM 28.9 °F 23.9 °F 21.9 °F 75% 30.01 in 10.0 mi SSE 4.6 mph - N/A   Scattered Clouds